Regional Weather Roundup
Issued by NWS

Home | Current Version | Previous Version | Graphics & Text | Print | Product List | Glossary On
Versions: 1 2 3 4 5 6 7 8 9 10 11 12 13 14 15 16 17 18 19 20 21 22 23 24 25 26 27 28 29 30 31 32 33 34 35 36 37 38 39 40 41 42 43 44 45 46 47 48 49 50
000
ASUS43 KIND 290709
RWRIN

WEATHER ROUNDUP FOR INDIANA
NATIONAL WEATHER SERVICE INDIANAPOLIS IN
300 AM EDT WED JUL 29 2015

NOTE: "FAIR" INDICATES FEW OR NO CLOUDS BELOW 12,000 FEET WITH NO
SIGNIFICANT WEATHER AND/OR OBSTRUCTIONS TO VISIBILITY.

* - STATION DOES NOT REPORT WEATHER SUCH AS PRECIPITATION OR FOG.

+ - STATION NOT QUALITY CONTROLLED BY THE NATIONAL WEATHER SERVICE.
    USE DATA WITH CAUTION...ESPECIALLY DEWPOINT AND RELATIVE
    HUMIDITY OBSERVATIONS.

INZ001>003-010>013-019-020-290800-
NORTHWEST INDIANA

CITY           SKY/WX    TMP DP  RH WIND       PRES   REMARKS
GARY /AIRPORT/ MOCLDY    79  75  88 SE5       29.92F
KNOX *+        PTCLDY    72  72 100 CALM      29.93F
LA PORTE +     PTCLDY    73  73 100 CALM      29.95F FOG
MICHIGAN CITY+ PTCLDY    73  72  94 CALM      29.93F
MONTICELLO +   CLEAR     74  74 100 CALM      29.93F FOG
RENSSELAER +   MOCLDY    73  73 100 CALM      29.94F
VALPARAISO     MOCLDY    73  71  93 CALM      29.94F FOG

$$

LMZ046-743>745-290800-
SOUTHERN LAKE MICHIGAN

STATION/POSITION TIME  TEMP    WIND        PRES    WAVE
                       AIR SEA DIR/SP/G            HT
                 (UTC) (F)     (DEG/KT/KT) (MB)    (FT)
BURNS HARBOR     0600   80     170/  4/ 20 1013.9F
MICHIGAN CITY    0600   80     140/  7/  8   N/A
5NW MICH CITY    0700   76 75  190/  4/  6   N/A     0

$$

INZ004-005-014>016-021>024-290800-
NORTH CENTRAL INDIANA

CITY           SKY/WX    TMP DP  RH WIND       PRES   REMARKS
GOSHEN         PTCLDY    74  68  81 SE5       29.96F
LOGANSPORT +   CLEAR     72  68  88 CALM      29.95F
PERU/GRISSOM   CLEAR     75  72  91 SE5       29.95F
ROCHESTER +    PTCLDY    75  75 100 CALM      29.95F
SOUTH BEND     MOCLDY    78  71  79 E5        29.94F
WARSAW +       PTCLDY    72  70  94 CALM      29.96F

$$

INZ006>009-017-018-025>027-290800-
NORTHEAST INDIANA

CITY           SKY/WX    TMP DP  RH WIND       PRES   REMARKS
ANGOLA *+      CLEAR     73  66  78 SE3       29.98F
AUBURN +       PTCLDY    72  64  78 E3        29.98F
FORT WAYNE     PTCLDY    73  70  90 E6        29.97F
HUNTINGTON +   CLEAR     76  72  87 CALM      29.96F

$$

INZ028-029-035-036-043>045-051>053-290800-
WEST CENTRAL INDIANA

CITY           SKY/WX    TMP DP  RH WIND       PRES   REMARKS
CRAWFORDSVL +  CLEAR     72  72 100 CALM        N/A  FOG
GREENCASTLE +  CLEAR     73  70  88 CALM      29.97F FOG
LAFAYETTE      CLEAR     74  74 100 CALM      29.93F FOG
TERRE HAUTE    PTCLDY    76  74  93 CALM      29.95F

$$

INZ030>032-037>040-046>048-054>057-064-065-290800-
CENTRAL INDIANA

CITY           SKY/WX    TMP DP  RH WIND       PRES   REMARKS
FISHERS *+     MOCLDY    73  73 100 CALM      29.96F
FRANKFORT +    CLEAR    N/A N/A N/A CALM      29.97F HAZE
GREENWOOD *+   CLEAR     73  70  88 CALM      29.97F
INDIANAPOLIS   MOCLDY    77  73  87 SE5       29.95F
-EAGLE CREEK   PTCLDY    76  74  93 CALM      29.96F
KOKOMO *+      CLEAR     73  70  88 SE3       29.96F
MARION +       CLEAR     72  72  98 CALM      29.97F FOG
MT COMFORT *+  CLEAR     73 N/A N/A CALM      29.97F
SHELBYVILLE    FOG       74  72  93 E5        29.95F VSB 1/2
ZIONSVILLE +   CLOUDY    73  71  91 CALM      29.97F FOG

$$

INZ033-034-041-042-049-050-058-059-290800-
EAST CENTRAL INDIANA

CITY           SKY/WX    TMP DP  RH WIND       PRES   REMARKS
MUNCIE         CLEAR     73  71  93 CALM      29.97F

$$

INZ060-061-067>069-081>083-085>088-290800-
SOUTHWEST INDIANA

CITY           SKY/WX    TMP DP  RH WIND       PRES   REMARKS
EVANSVILLE     MOCLDY    75  72  90 SW5       29.96F
HUNTINGBURG *+ PTCLDY    73  72  94 CALM      29.96F
WASHINGTON +   MOCLDY    74  71  88 CALM      29.95F

$$

INZ062-063-066-070>080-084-089>092-290800-
SOUTH CENTRAL AND SOUTHEAST INDIANA

CITY           SKY/WX    TMP DP  RH WIND       PRES   REMARKS
BLOOMINGTON    CLEAR     75  72  90 CALM      29.96F
MADISON *+       N/A     73  72  94 CALM      30.00S
NORTH VERNON + CLEAR     75  75 100 CALM      29.98S FOG
SEYMOUR +      CLEAR     75  75 100 CALM      29.96F FOG

$$




USA.gov is the U.S. government's official web portal to all federal, state and local government web resources and services.